Volver al catálogo

STARLINK-37364

ActivoComunicacionesSSO
NORAD 68783·PAYLOAD·🇺🇸 United States

Lanzado Apr 19, 2026 desde Vandenberg Space Force Base

Loading…

Próximos Pases (próximas 24 horas)

TLE

ActualizadoSource: CelesTrak SupGP

Época: Sep 14, 2026, 22:51 UTC

1 68783C 26086T   26257.95256944  .00040884  00000+0  12692-2 0  2572
2 68783  97.2842 293.5054 0001224 109.8348  38.4916 15.33416466    17

Sigue STARLINK-37364 en tiempo real con AllMySat

Download on the App Store